User: anonymous
Location: Unspecified
(0.0000°N, 0.0000°E)
Time: 05:34:49
(UTC+02:00)
Language:

Ariane H10 - Orbit

View from above orbital plane
View from above orbital plane
View from above satellite
View from above satellite

Ground track
Ground track

The orbit data is extracted from the following two-line orbital elements,

1 21815U 91084C   14233.42870991  .00000094  00000-0  35920-3 0  6040
2 21815 003.6975 143.9616 7200386 316.5992 173.1111 02.31099685188454
Epoch (UTC): 21 August 2014 10:17:20
Eccentricity: 0.7200386
inclination: 3.6975°
perigee height: 387 km
apogee height: 35188 km
right ascension of ascending node: 143.9616°
argument of perigee: 316.5992°
revolutions per day: 2.31099685
mean anomaly at epoch: 173.1111°
orbit number at epoch: 18845

The dashed part of the orbit path shows where the satellite is in the earth's shadow,  

DLR